Flag for U.S.A. Weather past 2 weeks in Clovis, New Mexico, U.S.A.

Now
49 °F

Sunny.


Feels Like: 43 °F
Forecast: 39 / 76 °F
Wind: 16 mph from West

Location: Cannon Air Force Base / Clovis


UV Index: 7 (High)

Visibility: 10 mi


Pressure: 29.75 "Hg

Humidity: 20%

Dew point: 10 °F

Location of ClovisLocation

Historic Weather in Clovis

°F

Clovis temperature yesterday

Maximum temperature yesterday: 65 °F (at 3:58 PM)
Minimum temperature yesterday: 25 °F (at 5:58 AM)
Average temperature yesterday: 47 °F

Past Weeks' High & Low Weather Summary

 TemperatureHumidityPressure
High84 °F (Apr 9, 3:58 PM)90% (Apr 7, 4:58 AM)30.34 "Hg (Apr 7, 4:58 AM)
Low25 °F (Apr 14, 7:58 AM)3% (Apr 10, 3:58 PM)29.47 "Hg (Apr 13, 4:58 PM)
Average54 °F33%29.89 "Hg
* Reported Apr 1 6:58 AM — Apr 16 6:58 AM, Clovis, Weather by CustomWeather, © 2014

Note: Actual official high and low records may vary slightly from our data, if they occured in-between our weather recording intervals... More about our weather records

Advertising

Historic Weather Conditions — Data for Previous 24 hours

 ConditionsComfort  
Time TempWeatherWind HumidityBarometerVisibility
6:58 AM
Apr 16
44 °FPassing clouds.17 mph22%29.74 "Hg10 mi
5:58 AM44 °FClear.9 mph22%29.74 "Hg10 mi
4:58 AM43 °FClear.10 mph22%29.74 "Hg10 mi
3:58 AM42 °FClear.7 mph22%29.75 "Hg10 mi
2:58 AM42 °FClear.10 mph21%29.85 "Hg10 mi
1:58 AM48 °FPassing clouds.10 mph17%29.88 "Hg10 mi
12:58 AM51 °FPassing clouds.9 mph14%29.89 "Hg10 mi
11:58 PM
Apr 15
52 °FClear.15 mph14%29.90 "Hg10 mi
10:58 PM53 °FClear.16 mph13%29.90 "Hg10 mi
9:58 PM55 °FClear.16 mph12%29.91 "Hg10 mi
8:58 PM56 °FClear.17 mph13%29.85 "Hg10 mi
7:58 PM58 °FSunny.15 mph13%29.86 "Hg10 mi
6:58 PM60 °FSunny.20 mph11%29.87 "Hg10 mi
4:58 PM65 °FSunny.29 mph9%29.89 "Hg10 mi
3:58 PM65 °FSunny.23 mph10%29.92 "Hg10 mi
2:58 PM64 °FSunny.24 mph10%29.98 "Hg10 mi
1:58 PM62 °FSunny.24 mph13%30.02 "Hg10 mi
12:58 PM59 °FSunny.25 mph15%30.06 "Hg10 mi
11:58 AM56 °FSunny.23 mph17%30.13 "Hg10 mi
10:58 AM53 °FSunny.20 mph21%30.17 "Hg10 mi
9:58 AM49 °FSunny.24 mph26%30.19 "Hg10 mi
8:58 AM41 °FSunny.17 mph36%30.22 "Hg10 mi
Weather by CustomWeather, © 2014

See weather overview